Погода в Иэме

Погода в Иэме : погода сейчас, прогноз погоды и архив. Всё, что Вы хотите узнать о погоде в Иэме!

Поиск расширенной информации на нашем сайте:

Другие новости

Новости СМИ2

Главная страница сайта

Новости сайта

03.07.2017

Напоминаем, что на нашем специализированном сайте Метеоцентр.Азия вы можете получить высокодетализированные автоматические прогнозы погоды по пунктам России, СНГ и мира в авиационном формате (включающие направление и скорость ветра, видимость, явления погоды, количество и форму облачности, нижнюю и верхнюю границу облачности).


Погода в Иэме - сегодня

Время (UTC), дата Ветер
(°,м/с) 
Видим.   Явления Облачность Т
(°С)
Тd
(°С)
f(%) Тe
(°С)
Pmin
(гПа)
dP
(гПа)
Po
(мм)
O2
(г/м3)
Тmin Tmax R s Состояние
почвы
18 21.11.17 тихо ()   20000 м  слаб. снег  10/0 средняя 
[As op]
-32.6 -36.2 70 -33  1006.6  0.3  686  316           
21 21.11.17 090 (В) 20000 м  {снег}  8/0 средняя 
[As trans]
-33.1 -36 75 -34  1008.6  1.3  688  317  -34.8    0.9  19  равномерный
сухой снег
100% 
00 22.11.17 тихо ()   20000 м  {снег}  9/0 верхняя 
[Cs]
-35.7 -39.4 69 -36  1011.5  1.6  689  321  -36.1         
03 22.11.17 тихо ()   20000 м    8/0 верхняя 
[Cs]
-36.5 -41.2 62 -37  1013.3  690  323           
06 22.11.17 тихо ()   20000 м    10/0 верхняя 
[Cs]
-36.1 -40.8 62 -36  1014.8  1.5  691  323           
09 22.11.17 тихо ()   20000 м  слаб. снег  9/0 средняя 
[As op]
-35.6 -37.4 83 -36  1016.2  1.9  692  323    -35.6     
12 22.11.17 тихо ()   20000 м  {снег}  4/0 средняя 
[As trans]
-39.6 -42.3 76 -40  1019.5  1.5  693  329           
15 22.11.17 040 (СВ) 20000 м    ясно 
-42.1 -45 73 -43  1021.9  1.1  694  333           
18 22.11.17 тихо ()   20000 м    ясно 
-43.9 -46.9 72 -44  1024.1  1.3  695  336           
21 22.11.17 тихо ()   20000 м  слаб. снег  10/0 средняя 
[As op]
-42.5 -45.6 72 -43  1024.7  1.1  696  334  -45    0.0  19  равномерный
сухой снег
100% 
00 23.11.17 тихо ()   20000 м  {снег}  9/0 верхняя 
[Cs]
-42 -45.6 68 -42  1025.7  1.2  697  334           
03 23.11.17 тихо ()   20000 м    9/0 верхняя 
[Cs]
-39 -42.5 69 -39  1025.2  0.7  697  330           
06 23.11.17 тихо ()   20000 м    10/0 средняя 
[Ac As]
-40.5 -43.9 69 -41  1027.2  1.2  698  332           
09 23.11.17 тихо ()   20000 м  слаб. снег  10/0 средняя 
[As op]
-40.1 -43.4 71 -40  1028.1  0.9  699  332    -39  0.0     
12 23.11.17 тихо ()   20000 м  {снег}  10/0 средняя 
[Ac As]
-40.1 -43.4 71 -40  1029.1  0.9  700  332           
15 23.11.17 тихо ()   20000 м  слаб. снег  10/0 средняя 
[As op]
-40.2 -43.4 71 -40  1029.2  0.1  700  333           
18 23.11.17 тихо ()   20000 м  {снег}  4/0 верхняя 
[Cs]
-44.3 -47.6 69 -44  1031.4  0.4  700  339           
21 23.11.17 тихо ()   20000 м    4/0 верхняя 
[Cs]
-46.2 -48.6 77 -46  1031.9  -0.3  700  341  -48.1    0.2  19  равномерный
сухой снег
100% 
00 24.11.17 тихо ()   20000 м    8/0 верхняя 
[Cs]
-44 -47.6 67 -44  1030.7  -0.2  700  338           
03 24.11.17 тихо ()   20000 м    6/0 верхняя 
[Ci fib]
-42.5 -45 77 -43  1028.5  -1.4  699  335           
06 24.11.17 тихо ()   20000 м    3/0 верхняя 
[Ci fib]
-44.6 -46 86 -45  1028.2  -1.1  698  338           
09 24.11.17 тихо ()   20000 м    ясно 
-47.6 -50.6 71 -48  1027.7  -1.7  696  342    -42.5       
12 24.11.17 тихо ()   20000 м    ясно 
-49 -51.8 73 -49  1026.4  -1.7  695  343           
15 24.11.17 тихо ()   20000 м    ясно 
-48.1 -50.6 75 -48  1021.9  -3.7  692  341           
18 24.11.17 тихо ()   20000 м    3/0 верхняя 
[Ci fib]
-46.2 -48.6 77 -46  1018.7  -2.1  691  337           
Время (UTC), дата Ветер
(°,м/с) 
Видим.   Явления Облачность Т
(°С)
Тd
(°С)
f(%) Тe
(°С)
Pmin
(гПа)
dP
(гПа)
Po
(мм)
O2
(г/м3)
Тmin Tmax R s Состояние
почвы

Для получения пояснительной информации подведите курсор к названию столбца.

ПОГОДА в Иэме - архив

Всё, что Вы хотите узнать о погоде в Иэме - удобно и подробно!

Выберите нужную дату (начиная с 1 января 2015* года) и нажмите кнопку "Найти".
Будут отображены архивные сводки погоды по пункту Иэма, начиная с указанной даты.


Отображать данные в формате CSV (для использования в таблицах Excel)


Внимание! Наш архив погоды предназначен исключительно для личного некоммерческого использования в познавательных целях. Если Вам необходимы официальные справки о состоянии погоды (для производственных, юридических, коммерческих и т.п. целей), обращайтесь в органы Росгидромета.

*Примечание: данная дата относится к архиву по метеостанциям СССР (Россия, СНГ, Балтия).
Архив по метеостанциям Зарубежной Европы и Азии (кроме Китая) хранится 10 дней, по другим регионам земного шара (Китай, Африка, Америка, Австралия, Океания) - 1 день.

Иэма - район местоположения метеостанции


Название, широта, долгота, высота метеостанции:
Иэма 65.2°ш. 135.9°д. 676 м над ур. моря [Российская Федерация]

Дополнительная информация

В oтличие oт бoльшинства пoгoдных сайтoв мы публикуем пoдрoбную метеoинфoрмацию в детальнoм прoфессиoнальнoм фoрмате.

Характеристики температуры и влажнoсти вoздуха измеряются на высoте 2 м в тени вдали oт зданий и деревьев.
Скoрoсть ветра измеряется на высoте 10 м (на урoвне рoста челoвека скoрoсть ветра ниже в 1.5-2 раза). Если метеoстанция нахoдится в гoрoде или в лесу, тo скoрoсть ветра занижена на 2-4 м/с пo сравнению с oткрытым местoм. Скoрoсть ветра над акватoриями крупных рек и oзёр, а также на вершинах хoлмoв на 2-5 м/с выше, чем в oбычных услoвиях.
Атмoсфернoе давление в разных тoчках местнoсти мoжет значительнo oтличаться oт давления на метеoстанции, в зависимoсти oт услoвий рельефа (при пoдъёме на 10 м давление пoнижается примернo на 1 мм рт.ст.).